STARLINK-1846 (47136 NORAD) Tracking and Keplerian Element Data
This shows tracking and keplerian element data for the satellite.
Feedback or suggestion? Click here.
Element | Value |
Catalog | 47136 |
Name | STARLINK-1846 |
Epoch Orbit | 176 |
Epoch Day | 15.91667824 |
Epoch Year | 2021 |
RAAN | 98.8213 |
Inclination | 53.0562 |
Eccentricity | 0.0001294 |
Argument of Perigee | 66.5083 |
Mean Anonmoly | 181.4602 |
Mean Motion | 15.4976507 |
Decay Rate | -0.0108231 |
L1 | 1 47136U 20088Q 21015.91667824 -.01082310 00000-0 -21135-1 0 9991 |
L2 | 2 47136 53.0562 98.8213 0001294 66.5083 181.4602 15.49765070 1769 |
Live tracking and technical data element details for STARLINK-1846 (NORAD 47136). STARLINK-1846 can be tracked NOW for your location showing map with azimuth and elevation plus other details from your city location.
Track the satellite on the map from your city or location and see movement details for azimuth, elevation, latitude, longitude, range, height, and movement on the map or in text.
IsCatalogInMostPopularTable: catalog: 47136, numindb: 15
Update: records affected: 1
GetName: 47136 STARLINK-1846
Hit Count: updated at: Sun, 17 Jan 2021 09:01:24 GMT